#timestamp,LO_Frequency,Hit,StdDev 
1526493615.7,286047003.0,Y
1526493635.6,286047002.5,P
1526493655.4,286047002.8,P
1526493675.2,286047003.1,P
1526493695.1,286047003.2,Y
1526493696.0,286047003.2,P
1526493715.8,286047001.2,P
1526493735.7,286046998.9,N
1526493755.5,286046998.9,N
1526493775.3,286046996.5,N
1526493795.2,286046999.3,N
1526493815.0,286046998.4,N
1526493815.9,286046998.4,N
1526493835.8,286046998.5,N
1526493855.6,286046998.3,N
1526493875.4,286046998.7,N
1526493895.3,286046995.3,N
1526493915.1,286046999.5,N
1526493935.8,286046998.7,N
1526493955.7,286046998.8,N
1526493975.5,286046996.8,N
1526493995.4,286046996.9,N
1526494015.2,286046996.8,N
1526494035.0,286046997.1,N
1526494035.9,286046997.1,N
1526494055.8,286046997.9,N
1526494075.6,286046998.0,N
1526494095.4,286046997.7,N
1526494115.3,286046997.7,N
1526494135.1,286046995.0,N
1526494155.9,286046997.9,N
1526494175.7,286046997.0,N
1526494195.5,286046996.8,N
1526494215.4,286046996.1,N
1526494235.2,286046995.9,N
1526494255.1,286046995.7,N
1526494256.0,286046995.7,Y
1526494275.8,286046999.0,P
1526494295.6,286046998.2,N
1526494315.5,286046998.6,N
1526494335.3,286046999.4,N
1526494355.2,286046996.9,Y
1526494375.9,286046999.0,P
1526494395.7,286046998.2,P
1526494415.6,286046998.5,P
1526494435.4,286046998.4,Y
1526494455.2,286047000.9,P
1526494475.1,286047001.6,N
1526494476.0,286047001.6,N
1526494495.8,286047002.0,N
1526494515.7,286047000.4,N
1526494535.5,286047000.9,N
1526494555.3,286047001.0,N
1526494575.2,286047000.7,N
1526494595.0,286046998.8,N
1526494595.9,286046998.8,N
1526494615.7,286047000.3,N
1526494635.6,286047001.0,N
1526494655.4,286047000.6,N
1526494675.3,286047000.9,N
1526494695.1,286046996.5,Y
1526494696.0,286046996.5,P
1526494715.8,286046996.9,N
1526494735.7,286046998.8,N
1526494755.5,286046996.5,N
1526494775.3,286046997.4,N
1526494795.2,286046997.7,N
1526494815.0,286046996.7,N
1526494815.9,286046996.7,N
1526494835.8,286046999.6,N
1526494855.6,286046999.4,N
1526494875.4,286046996.8,N
1526494895.3,286046996.9,N
1526494915.1,286046999.2,N
1526494935.9,286046997.6,N
1526494955.7,286046998.0,N
1526494975.5,286046996.7,N
1526494995.4,286046997.3,N
1526495015.2,286046997.2,N
1526495035.0,286046998.4,N
1526495036.0,286046998.4,N
1526495055.8,286046999.4,N
1526495075.6,286046999.1,N
1526495095.5,286046999.6,N
1526495115.3,286046998.1,N
1526495135.1,286046999.0,N
1526495155.9,286046999.1,N
1526495175.7,286046999.0,N
1526495195.6,286047001.0,N
1526495215.4,286047000.4,N
1526495235.2,286046999.9,N
1526495255.1,286047002.3,N
1526495256.0,286047002.3,N
1526495275.8,286046998.2,N
1526495295.6,286046996.7,N
1526495315.5,286046997.2,N
1526495335.3,286046998.8,N
1526495355.2,286046999.3,N
1526495375.9,286046998.6,N
1526495395.7,286046999.5,N
1526495415.6,286046997.4,N
1526495435.4,286046997.3,N
1526495455.2,286046997.2,N
1526495475.1,286046997.8,N
1526495476.0,286046997.8,N
1526495495.8,286046997.9,N
1526495515.7,286046996.2,N
1526495535.5,286046994.6,Y
1526495555.3,286046995.9,P
1526495575.2,286046995.8,P
1526495595.0,286046994.6,P
1526495595.9,286046994.6,Y
1526495615.8,286046997.3,P
1526495635.6,286046997.7,P
1526495655.4,286046995.0,P
1526495675.3,286046997.8,N
1526495695.1,286046997.0,N
1526495715.8,286046997.7,N
1526495735.7,286046995.5,Y
1526495755.5,286046999.6,P
1526495775.4,286046996.5,N
1526495795.2,286046998.1,N
1526495815.0,286046999.3,N
1526495815.9,286046999.3,N
1526495835.8,286046999.5,N
1526495855.6,286046998.8,N
1526495875.5,286046998.4,N
1526495895.3,286046998.4,N
1526495915.1,286046998.6,N
1526495935.9,286046998.7,N
1526495955.7,286046998.7,N
1526495975.5,286046998.2,N
1526495995.4,286046998.8,N
1526496015.2,286046999.4,N
1526496035.1,286047000.7,N
1526496036.0,286047000.7,N
1526496055.8,286047000.0,N
1526496075.6,286047000.6,N
1526496095.5,286046998.1,N
1526496115.3,286047001.2,N
1526496135.1,286047000.6,N
1526496155.9,286047000.6,N
1526496175.7,286047002.7,N
1526496195.6,286047000.8,N
1526496215.4,286047001.0,N
1526496235.2,286047000.7,N
1526496255.1,286047001.0,N
1526496256.0,286047001.0,N
1526496275.8,286047000.8,N
1526496295.7,286047000.9,N
1526496315.5,286047000.5,N
1526496335.3,286047002.8,N
1526496355.2,286047000.1,N
1526496375.9,286047000.6,N
1526496395.7,286047002.3,N
1526496415.6,286047000.4,N
1526496435.4,286047000.4,N
1526496455.3,286046999.7,N
1526496475.1,286047001.6,N
1526496476.0,286047001.6,N
1526496495.8,286046999.7,N
1526496515.7,286047002.0,N
1526496535.5,286047002.5,N
1526496555.4,286047000.0,N
1526496575.2,286047000.1,N
1526496595.0,286047002.7,N
1526496595.9,286047002.7,N
1526496615.8,286047002.5,N
1526496635.6,286047002.7,N
1526496655.4,286047002.1,N
1526496675.3,286047002.3,N
1526496695.1,286047002.0,N
1526496715.9,286047001.5,N
1526496735.7,286047002.2,N
1526496755.5,286047002.8,N
1526496775.4,286046999.8,N
1526496795.2,286047002.8,N
1526496815.1,286047002.0,N
1526496816.0,286047002.0,N
1526496835.8,286047004.0,Y
1526496855.6,286046999.9,P
1526496875.5,286047000.1,N
1526496895.3,286046999.9,N
1526496915.1,286047000.6,N
1526496935.9,286046998.1,Y
1526496955.7,286046999.3,P
1526496975.6,286047001.2,N
1526496995.4,286047000.9,N
1526497015.2,286047001.2,N
1526497035.1,286047000.4,N
1526497036.0,286047000.4,N
1526497055.8,286047000.4,N
1526497075.7,286047000.9,N
1526497095.5,286047001.0,N
1526497145.4,286046999.1,E
1526497155.3,286046998.1,N
1526497175.1,286047001.0,P
1526497195.9,286047000.8,N
